When you browse on this site, cookies collect data to enhance your experience and personalize the content and advertising you see.
Visit our Privacy Policy to learn more. By continuing to use the site, you agree to this use of cookies and data.
  • In Portugal
  • List of Countries
  • For 7 days
  • Water Temperature
  • Satellite Maps
  • Weather Map
  • Weather Widgets
  • user-avatar
    Login

    Hourly Weather Balchik

    Today, 21 April, Sunday

    Time Temperature Precipitation Wind Pressure Humidity
    00:00 +3°C° 0 mm 2 mps 746 mmHg 63%
    01:00 +3°C° 0 mm 2 mps 746 mmHg 65%
    02:00 +3°C° 0 mm 2 mps 745 mmHg 68%
    03:00 +3°C° 0 mm 2 mps 745 mmHg 71%
    04:00 +2°C° 0 mm 3 mps 745 mmHg 73%
    05:00 +2°C° 0 mm 3 mps 745 mmHg 75%
    06:00 +4°C° 0 mm 3 mps 745 mmHg 71%
    07:00 +5°C° 0 mm 3 mps 745 mmHg 67%
    08:00 +7°C° 0 mm 4 mps 745 mmHg 63%
    09:00 +10°C° 0 mm 3 mps 745 mmHg 58%
    10:00 +11°C° 0 mm 3 mps 745 mmHg 52%
    11:00 +13°C° 0 mm 3 mps 745 mmHg 47%
    12:00 +14°C° 0.1 mm 2 mps 745 mmHg 49%
    13:00 +14°C° 0.1 mm 2 mps 745 mmHg 50%
    14:00 +13°C° 0.1 mm 1 mps 744 mmHg 52%
    15:00 +13°C° 0.2 mm 2 mps 744 mmHg 56%
    16:00 +13°C° 0.2 mm 2 mps 744 mmHg 60%
    17:00 +11°C° 0.2 mm 3 mps 743 mmHg 63%
    18:00 +9°C° 0 mm 3 mps 743 mmHg 69%
    19:00 +8°C° 0 mm 3 mps 743 mmHg 74%
    20:00 +5°C° 0 mm 3 mps 743 mmHg 79%
    21:00 +5°C° 0 mm 3 mps 743 mmHg 78%
    22:00 +4°C° 0 mm 3 mps 743 mmHg 77%
    23:00 +4°C° 0 mm 3 mps 743 mmHg 76%

    Tomorrow, 22 April, Monday

    Time Temperature Precipitation Wind Pressure Humidity
    00:00 +4°C° 0 mm 3 mps 743 mmHg 76%
    01:00 +5°C° 0 mm 2 mps 743 mmHg 77%
    02:00 +4°C° 0 mm 2 mps 743 mmHg 77%
    03:00 +3°C° 0 mm 3 mps 743 mmHg 78%
    04:00 +3°C° 0 mm 3 mps 743 mmHg 79%
    05:00 +3°C° 0 mm 3 mps 742 mmHg 79%
    06:00 +5°C° 0 mm 4 mps 743 mmHg 75%
    07:00 +7°C° 0 mm 4 mps 743 mmHg 71%
    08:00 +8°C° 0 mm 5 mps 743 mmHg 67%
    09:00 +9°C° 0 mm 6 mps 743 mmHg 64%
    10:00 +10°C° 0 mm 6 mps 744 mmHg 62%
    11:00 +11°C° 0 mm 6 mps 744 mmHg 59%
    12:00 +11°C° 0 mm 6 mps 744 mmHg 58%
    13:00 +11°C° 0 mm 6 mps 744 mmHg 57%
    14:00 +11°C° 0 mm 6 mps 743 mmHg 56%
    15:00 +11°C° 0 mm 6 mps 743 mmHg 56%
    16:00 +10°C° 0 mm 6 mps 743 mmHg 56%
    17:00 +9°C° 0 mm 5 mps 743 mmHg 56%
    18:00 +8°C° 0 mm 5 mps 743 mmHg 60%
    19:00 +7°C° 0 mm 5 mps 744 mmHg 63%
    20:00 +5°C° 0 mm 4 mps 744 mmHg 67%
    21:00 +5°C° 0 mm 4 mps 744 mmHg 69%
    22:00 +4°C° 0 mm 4 mps 744 mmHg 72%
    23:00 +4°C° 0 mm 3 mps 744 mmHg 75%

    Day after tomorrow, 23 April, Tuesday

    Time Temperature Precipitation Wind Pressure Humidity
    00:00 +4°C° 0 mm 3 mps 744 mmHg 78%
    01:00 +4°C° 0 mm 3 mps 744 mmHg 82%
    02:00 +4°C° 0 mm 2 mps 744 mmHg 85%
    03:00 +4°C° 0 mm 2 mps 744 mmHg 86%
    04:00 +4°C° 0 mm 2 mps 744 mmHg 87%
    05:00 +4°C° 0 mm 2 mps 744 mmHg 88%
    06:00 +5°C° 0 mm 3 mps 745 mmHg 83%
    07:00 +7°C° 0 mm 3 mps 745 mmHg 79%
    08:00 +7°C° 0 mm 4 mps 745 mmHg 74%
    09:00 +8°C° 0 mm 5 mps 746 mmHg 69%
    10:00 +9°C° 0 mm 5 mps 746 mmHg 65%
    11:00 +10°C° 0 mm 6 mps 746 mmHg 60%
    12:00 +11°C° 0 mm 6 mps 746 mmHg 58%
    13:00 +11°C° 0 mm 6 mps 746 mmHg 56%
    14:00 +12°C° 0 mm 7 mps 745 mmHg 54%
    15:00 +11°C° 0 mm 6 mps 745 mmHg 58%
    16:00 +10°C° 0 mm 6 mps 745 mmHg 63%
    17:00 +8°C° 0 mm 5 mps 745 mmHg 67%
    18:00 +8°C° 0 mm 5 mps 745 mmHg 70%
    19:00 +7°C° 0 mm 5 mps 745 mmHg 74%
    20:00 +6°C° 0 mm 5 mps 745 mmHg 77%
    21:00 +6°C° 0 mm 5 mps 745 mmHg 77%
    22:00 +7°C° 0 mm 5 mps 745 mmHg 76%
    23:00 +7°C° 0 mm 5 mps 745 mmHg 76%

    24 April, Wednesday

    Time Temperature Precipitation Wind Pressure Humidity
    00:00 +7°C° 0 mm 5 mps 745 mmHg 82%
    01:00 +7°C° 0 mm 4 mps 745 mmHg 87%
    02:00 +6°C° 0 mm 4 mps 745 mmHg 92%
    03:00 +6°C° 0 mm 4 mps 745 mmHg 92%
    04:00 +6°C° 0 mm 4 mps 745 mmHg 93%
    05:00 +6°C° 0 mm 4 mps 745 mmHg 93%
    06:00 +8°C° 0 mm 4 mps 745 mmHg 87%
    07:00 +10°C° 0 mm 4 mps 746 mmHg 81%
    08:00 +10°C° 0 mm 5 mps 746 mmHg 75%
    09:00 +12°C° 0 mm 5 mps 746 mmHg 71%
    10:00 +13°C° 0 mm 5 mps 746 mmHg 66%
    11:00 +15°C° 0 mm 5 mps 746 mmHg 61%
    12:00 +15°C° 0 mm 5 mps 746 mmHg 59%
    13:00 +15°C° 0 mm 5 mps 746 mmHg 57%
    14:00 +16°C° 0 mm 5 mps 746 mmHg 55%
    15:00 +15°C° 0 mm 5 mps 746 mmHg 58%
    16:00 +14°C° 0 mm 5 mps 746 mmHg 60%
    17:00 +13°C° 0 mm 5 mps 746 mmHg 63%
    18:00 +11°C° 0 mm 4 mps 746 mmHg 72%
    19:00 +8°C° 0 mm 4 mps 746 mmHg 80%
    20:00 +8°C° 0 mm 3 mps 746 mmHg 89%
    21:00 +7°C° 0 mm 3 mps 746 mmHg 89%
    22:00 +7°C° 0 mm 3 mps 746 mmHg 90%
    23:00 +7°C° 0 mm 3 mps 746 mmHg 91%

    25 April, Thursday

    Time Temperature Precipitation Wind Pressure Humidity
    00:00 +7°C° 0 mm 3 mps 746 mmHg 90%
    01:00 +7°C° 0 mm 3 mps 746 mmHg 89%
    02:00 +7°C° 0 mm 3 mps 746 mmHg 89%
    03:00 +7°C° 0 mm 3 mps 746 mmHg 90%
    04:00 +7°C° 0 mm 3 mps 746 mmHg 90%
    05:00 +5°C° 0 mm 3 mps 746 mmHg 91%
    06:00 +8°C° 0 mm 3 mps 746 mmHg 86%
    07:00 +10°C° 0 mm 3 mps 747 mmHg 80%
    08:00 +12°C° 0 mm 4 mps 747 mmHg 75%
    09:00 +13°C° 0 mm 4 mps 747 mmHg 70%
    10:00 +15°C° 0 mm 4 mps 747 mmHg 65%
    11:00 +17°C° 0 mm 4 mps 747 mmHg 60%
    12:00 +17°C° 0 mm 4 mps 747 mmHg 59%
    13:00 +16°C° 0 mm 5 mps 747 mmHg 59%
    14:00 +17°C° 0 mm 5 mps 747 mmHg 59%
    15:00 +16°C° 0 mm 5 mps 746 mmHg 61%
    16:00 +15°C° 0 mm 5 mps 746 mmHg 63%
    17:00 +14°C° 0 mm 5 mps 746 mmHg 65%
    18:00 +12°C° 0 mm 4 mps 746 mmHg 72%
    19:00 +10°C° 0 mm 4 mps 745 mmHg 79%
    20:00 +8°C° 0 mm 3 mps 745 mmHg 85%
    21:00 +8°C° 0 mm 3 mps 745 mmHg 85%
    22:00 +7°C° 0 mm 3 mps 745 mmHg 85%
    23:00 +7°C° 0 mm 3 mps 745 mmHg 85%

    26 April, Friday

    Time Temperature Precipitation Wind Pressure Humidity
    00:00 +7°C° 0 mm 3 mps 745 mmHg 85%
    01:00 +7°C° 0 mm 3 mps 744 mmHg 85%
    02:00 +7°C° 0 mm 2 mps 744 mmHg 85%
    03:00 +7°C° 0 mm 3 mps 744 mmHg 85%
    04:00 +7°C° 0 mm 3 mps 744 mmHg 85%
    05:00 +7°C° 0 mm 3 mps 744 mmHg 85%
    06:00 +8°C° 0 mm 3 mps 744 mmHg 80%
    07:00 +10°C° 0 mm 4 mps 744 mmHg 75%
    08:00 +12°C° 0 mm 4 mps 744 mmHg 69%
    09:00 +13°C° 0 mm 5 mps 744 mmHg 66%
    10:00 +15°C° 0 mm 5 mps 744 mmHg 62%
    11:00 +16°C° 0 mm 5 mps 744 mmHg 59%
    12:00 +16°C° 0 mm 5 mps 743 mmHg 57%
    13:00 +17°C° 0 mm 5 mps 743 mmHg 56%
    14:00 +17°C° 0 mm 5 mps 743 mmHg 55%
    15:00 +16°C° 0 mm 5 mps 742 mmHg 58%
    16:00 +15°C° 0 mm 5 mps 742 mmHg 61%
    17:00 +15°C° 0 mm 5 mps 741 mmHg 64%
    18:00 +13°C° 0 mm 4 mps 741 mmHg 72%
    19:00 +11°C° 0 mm 4 mps 741 mmHg 81%
    20:00 +9°C° 0 mm 3 mps 741 mmHg 89%
    21:00 +8°C° 0 mm 3 mps 741 mmHg 90%
    22:00 +8°C° 0 mm 3 mps 741 mmHg 91%
    23:00 +8°C° 0 mm 3 mps 740 mmHg 92%
    Show more